Weather in Sete Lagoas

Brazil     19°28′03″S   44°14′53″W
temp.,
°C
wind,
m/s
gust,
m/s
humid.,
%
clouds,
%
prec.,
mm/h
press.,
hPa
HPBL,
m
22 april, thu
thu2200:00+17se22630 0.0 101517
03:00+15se22870 0.0 101420
06:00+15se22913 0.0 101518
09:00+22se22590 0.0 1015478
12:00+27w24370 0.0 10142293
15:00+27wsw34330 0.0 10122471
18:00+20s22510 0.0 101315
21:00+19se22530 0.0 101514
23 april, fri
fri2300:00+16se37851 0.0 1016138
03:00+15ese36860 0.0 1014107
06:00+14ese22910 0.0 101614
09:00+21ene23620 0.0 1017544
12:00+27n24430 0.0 10141801
15:00+28wnw24343 0.0 10112473
18:00+22wsw115042 0.0 101211
21:00+19ssw22560 0.0 101414
24 april, sat
sat2400:00+17ese22670 0.0 101515
03:00+16ene22890 0.0 101416
06:00+15se1192100 0.0 101511
09:00+23ene11659 0.0 1016463
12:00+27nw35447 0.0 10141940
15:00+29w34335 0.0 10112257
18:00+22ssw2250100 0.0 101212
21:00+20se1154100 0.0 101411
25 april, sun
sun2500:00+18se11586 0.0 101411
03:00+17sse1165100 0.0 101311
06:00+16e117099 0.0 101411
09:00+24e115730 0.0 1015417
12:00+29nnw133893 0.0 10121626
15:00+29w23332 0.0 10102487
18:00+22s2250100 0.0 101119
21:00+21se214953 0.0 101312
26 april, mon
mon2600:00+18ese22845 0.0 101322
03:00+18e118775 0.0 101211
06:00+17e22917 0.0 101312
09:00+24ene2363100 0.0 1014496
12:00+28nnw3446100 0.1 10122102
15:00+28w3445100 0.1 10101165
18:00+23nne1161100 0.0 101118
21:00+20ese1182100 0.9 101411